This demonstration page uses our WeatherBlox Daily Observations layout. Learn more.

Left ArrowRight Arrow

Hourly Observations for September 24, 2019

Temp ( °F °C ) Dew Point ( °F °C ) Humidity (%) Winds ( mph kmh ) Pressure ( in mb ) Visibility ( mi km ) Precip ( " mm )
12:54 am 00:54 Clear 68 20 56 13.3 65 65 SSW 7 11 29.92 1013 10 16 0.00 0.00
1:54 am 01:54 Clear 65 18.3 57 13.9 76 76 S 8 13 29.91 1013 10 16 0.00 0.00
2:54 am 02:54 Clear 63 17.2 57 13.9 81 81 S 8 13 29.91 1013 10 16 0.00 0.00
3:54 am 03:54 Clear 65 18.3 57 13.9 76 76 SSW 8 13 29.91 1013 10 16 0.00 0.00
4:54 am 04:54 Clear 64 17.8 57 13.9 78 78 S 7 11 29.89 1012 10 16 0.00 0.00
5:10 am 05:10 Mostly Cloudy 65 18.3 57 13.9 76 76 S 8 13 29.89 1012 10 16 0.00 0.00
5:17 am 05:17 Partly Cloudy 65 18.3 56 13.3 73 73 S 9 15 29.89 1012 10 16 0.00 0.00
5:54 am 05:54 Partly Cloudy 65 18.3 56 13.3 73 73 S 7 11 29.89 1012 10 16 0.00 0.00
6:54 am 06:54 Clear 62 16.7 56 13.3 80 80 S 7 11 29.87 1012 10 16 0.00 0.00
7:54 am 07:54 Sunny 65 18.3 57 13.9 76 76 S 9 15 29.86 1011 10 16 0.00 0.00
8:54 am 08:54 Mostly Cloudy 68 20 58 14.4 70 70 Calm 29.86 1011 10 16 0.00 0.00
9:54 am 09:54 Sunny 73 22.8 63 17.2 71 71 S 9 15 29.84 1011 10 16 0.00 0.00
10:54 am 10:54 Mostly Cloudy 76 24.4 66 18.9 72 72 SW 9 15 29.84 1011 10 16 0.00 0.00
11:54 am 11:54 Sunny 81 27.2 68 20 65 65 SSW 14 22 29.80 1009 10 16 0.00 0.00
12:54 pm 12:54 Sunny 84 28.9 69 20.6 61 61 SSW 16 26 29.77 1008 10 16 0.00 0.00
1:54 pm 13:54 Mostly Sunny 86 30 69 20.6 57 57 S 15 24 29.73 1007 10 16 0.00 0.00
2:54 pm 14:54 Sunny 85 29.4 68 20 57 57 SSW 20 31 29.72 1006 10 16 0.00 0.00
3:54 pm 15:54 Sunny 84 28.9 69 20.6 61 61 SW 17 28 29.69 1006 10 16 0.00 0.00
4:54 pm 16:54 Partly Cloudy 83 28.3 69 20.6 63 63 SSW 17 28 29.67 1005 10 16 0.00 0.00
5:04 pm 17:04 Mostly Cloudy 82 27.8 69 20.6 65 65 SSW 17 28 29.64 1004 10 16 0.00 0.00
5:42 pm 17:42 Partly Cloudy 82 27.8 69 20.6 65 65 SW 14 22 29.63 1004 10 16 0.00 0.00
5:54 pm 17:54 Mostly Sunny 82 27.8 69 20.6 65 65 SW 13 20 29.66 1004 10 16 0.00 0.00
6:54 pm 18:54 Mostly Cloudy 81 27.2 70 21.1 69 69 W 3 6 29.66 1005 10 16 0.00 0.00
7:54 pm 19:54 Mostly Cloudy 80 26.7 70 21.1 71 71 W 5 7 29.66 1005 10 16 0.00 0.00
8:54 pm 20:54 Partly Cloudy 75 23.9 64 17.8 69 69 S 14 22 29.68 1005 10 16 0.00 0.00
9:39 pm 21:39 Clear with Nearby Thunderstorms 74 23.3 67 19.4 79 79 S 14 22 29.64 1004 10 16 0.00 0.00
9:54 pm 21:54 Partly Cloudy with Thunderstorms 76 24.4 67 19.4 74 74 SW 8 13 29.70 1006 10 16 0.00 0.00
10:21 pm 22:21 Cloudy with Nearby Thunderstorms 74 23.3 68 20 82 82 W 8 13 29.69 1006 10 16 0.08 2.03
10:34 pm 22:34 Partly Cloudy 74 23.3 68 20 82 82 WNW 6 9 29.70 1006 10 16 0.08 2.03
10:54 pm 22:54 Mostly Cloudy 73 22.8 68 20 84 84 NNW 9 15 29.73 1007 10 16 0.08 2.03
11:54 pm 23:54 Mostly Cloudy 69 20.6 61 16.1 76 76 N 9 15 29.75 1008 10 16 0.00 0.00

Powered by AerisWeather